Year,Month,Day,Hour,Minute,Value (Times are PST for temperature in C)
2011,09,03,00,00,10.00
2011,09,03,00,01,10.00
2011,09,03,00,02,10.00
2011,09,03,00,03,10.00
2011,09,03,00,04,10.00
2011,09,03,00,05,10.00
2011,09,03,00,06,10.00
2011,09,03,00,07,10.00
2011,09,03,00,08,9.90
2011,09,03,00,09,9.90
2011,09,03,00,10,9.90
2011,09,03,00,11,9.90
2011,09,03,00,12,9.90
2011,09,03,00,13,9.80
2011,09,03,00,14,9.80
2011,09,03,00,15,9.80
2011,09,03,00,16,9.80
2011,09,03,00,17,9.80
2011,09,03,00,18,9.80
2011,09,03,00,19,9.80
2011,09,03,00,20,9.80
2011,09,03,00,21,9.80
2011,09,03,00,22,9.80
2011,09,03,00,23,9.80
2011,09,03,00,24,9.80
2011,09,03,00,25,9.80
2011,09,03,00,26,9.80
2011,09,03,00,27,9.80
2011,09,03,00,28,9.80
2011,09,03,00,29,9.80
2011,09,03,00,30,9.80
2011,09,03,00,31,9.70
2011,09,03,00,32,9.70
2011,09,03,00,33,9.70
2011,09,03,00,34,9.80
2011,09,03,00,35,9.80
2011,09,03,00,36,9.80
2011,09,03,00,37,9.80
2011,09,03,00,38,9.80
2011,09,03,00,39,9.80
2011,09,03,00,40,9.80
2011,09,03,00,41,9.90
2011,09,03,00,42,9.90
2011,09,03,00,43,9.90
2011,09,03,00,44,9.90
2011,09,03,00,45,9.90
2011,09,03,00,46,9.90
2011,09,03,00,47,9.90
2011,09,03,00,48,9.90
2011,09,03,00,49,9.90
2011,09,03,00,50,9.90
2011,09,03,00,51,9.90
2011,09,03,00,52,9.90
2011,09,03,00,53,9.90
2011,09,03,00,54,9.90
2011,09,03,00,55,9.90
2011,09,03,00,56,9.80
2011,09,03,00,57,9.80
2011,09,03,00,58,9.80
2011,09,03,00,59,9.80
2011,09,03,01,00,9.80
2011,09,03,01,01,9.80
2011,09,03,01,02,9.70
2011,09,03,01,03,9.70
2011,09,03,01,04,9.70
2011,09,03,01,05,9.70
2011,09,03,01,06,9.70
2011,09,03,01,07,9.70
2011,09,03,01,08,9.70
2011,09,03,01,09,9.70
2011,09,03,01,10,9.70
2011,09,03,01,11,9.70
2011,09,03,01,12,9.60
2011,09,03,01,13,9.60
2011,09,03,01,14,9.60
2011,09,03,01,15,9.60
2011,09,03,01,16,9.60
2011,09,03,01,17,9.60
2011,09,03,01,18,9.60
2011,09,03,01,19,9.60
2011,09,03,01,20,9.60
2011,09,03,01,21,9.60
2011,09,03,01,22,9.60
2011,09,03,01,23,9.60
2011,09,03,01,24,9.60
2011,09,03,01,25,9.60
2011,09,03,01,26,9.60
2011,09,03,01,27,9.60
2011,09,03,01,28,9.60
2011,09,03,01,29,9.60
2011,09,03,01,30,9.60
2011,09,03,01,31,9.60
2011,09,03,01,32,9.60
2011,09,03,01,33,9.60
2011,09,03,01,34,9.60
2011,09,03,01,35,9.60
2011,09,03,01,36,9.60
2011,09,03,01,37,9.60
2011,09,03,01,38,9.60
2011,09,03,01,39,9.60
2011,09,03,01,40,9.60
2011,09,03,01,41,9.60
2011,09,03,01,42,9.60
2011,09,03,01,43,9.60
2011,09,03,01,44,9.60
2011,09,03,01,45,9.60
2011,09,03,01,46,9.60
2011,09,03,01,47,9.60
2011,09,03,01,48,9.60
2011,09,03,01,49,9.60
2011,09,03,01,50,9.60
2011,09,03,01,51,9.60
2011,09,03,01,52,9.60
2011,09,03,01,53,9.60
2011,09,03,01,54,9.60
2011,09,03,01,55,9.60
2011,09,03,01,56,9.60
2011,09,03,01,57,9.60
2011,09,03,01,58,9.60
2011,09,03,01,59,9.60
2011,09,03,02,00,9.60
2011,09,03,02,01,9.60
2011,09,03,02,02,9.60
2011,09,03,02,03,9.70
2011,09,03,02,04,9.70
2011,09,03,02,05,9.70
2011,09,03,02,06,9.80
2011,09,03,02,07,9.80
2011,09,03,02,08,9.80
2011,09,03,02,09,9.80
2011,09,03,02,10,9.80
2011,09,03,02,11,9.80
2011,09,03,02,12,9.80
2011,09,03,02,13,9.80
2011,09,03,02,14,9.80
2011,09,03,02,15,9.90
2011,09,03,02,16,9.90
2011,09,03,02,17,9.90
2011,09,03,02,18,9.90
2011,09,03,02,19,9.90
2011,09,03,02,20,10.00
2011,09,03,02,21,10.10
2011,09,03,02,22,10.10
2011,09,03,02,23,10.10
2011,09,03,02,24,10.10
2011,09,03,02,25,10.10
2011,09,03,02,26,10.10
2011,09,03,02,27,10.10
2011,09,03,02,28,10.10
2011,09,03,02,29,10.10
2011,09,03,02,30,10.10
2011,09,03,02,31,10.10
2011,09,03,02,32,10.10
2011,09,03,02,33,10.00
2011,09,03,02,34,10.00
2011,09,03,02,35,10.00
2011,09,03,02,36,9.90
2011,09,03,02,37,9.90
2011,09,03,02,38,9.90
2011,09,03,02,39,9.90
2011,09,03,02,40,9.90
2011,09,03,02,41,9.90
2011,09,03,02,42,10.00
2011,09,03,02,43,10.00
2011,09,03,02,44,10.00
2011,09,03,02,45,10.00
2011,09,03,02,46,10.00
2011,09,03,02,47,10.00
2011,09,03,02,48,10.00
2011,09,03,02,49,10.10
2011,09,03,02,50,10.10
2011,09,03,02,51,10.10
2011,09,03,02,52,10.10
2011,09,03,02,53,10.10
2011,09,03,02,54,10.10
2011,09,03,02,55,10.10
2011,09,03,02,56,10.10
2011,09,03,02,57,10.10
2011,09,03,02,58,10.10
2011,09,03,02,59,10.10
2011,09,03,03,00,10.10
2011,09,03,03,01,10.10
2011,09,03,03,02,10.10
2011,09,03,03,03,10.10
2011,09,03,03,04,10.10
2011,09,03,03,05,10.10
2011,09,03,03,06,10.10
2011,09,03,03,07,10.10
2011,09,03,03,08,10.10
2011,09,03,03,09,10.10
2011,09,03,03,10,10.10
2011,09,03,03,11,10.10
2011,09,03,03,12,10.10
2011,09,03,03,13,10.00
2011,09,03,03,14,10.00
2011,09,03,03,15,10.00
2011,09,03,03,16,10.00
2011,09,03,03,17,10.00
2011,09,03,03,18,10.00
2011,09,03,03,19,10.00
2011,09,03,03,20,10.00
2011,09,03,03,21,10.00
2011,09,03,03,22,10.00
2011,09,03,03,23,10.00
2011,09,03,03,24,10.00
2011,09,03,03,25,10.00
2011,09,03,03,26,10.00
2011,09,03,03,27,10.00
2011,09,03,03,28,10.00
2011,09,03,03,29,10.00
2011,09,03,03,30,10.00
2011,09,03,03,31,10.00
2011,09,03,03,32,10.00
2011,09,03,03,33,10.00
2011,09,03,03,34,10.00
2011,09,03,03,35,10.00
2011,09,03,03,36,10.00
2011,09,03,03,37,10.10
2011,09,03,03,38,10.10
2011,09,03,03,39,10.10
2011,09,03,03,40,10.10
2011,09,03,03,41,10.10
2011,09,03,03,42,10.10
2011,09,03,03,43,10.10
2011,09,03,03,44,10.20
2011,09,03,03,45,10.30
2011,09,03,03,46,10.40
2011,09,03,03,47,10.60
2011,09,03,03,48,10.80
2011,09,03,03,49,11.00
2011,09,03,03,50,11.10
2011,09,03,03,51,11.30
2011,09,03,03,52,11.60
2011,09,03,03,53,11.80
2011,09,03,03,54,11.90
2011,09,03,03,55,12.00
2011,09,03,03,56,12.10
2011,09,03,03,57,12.10
2011,09,03,03,58,12.10
2011,09,03,03,59,12.20
2011,09,03,04,00,12.20
2011,09,03,04,01,12.30
2011,09,03,04,02,12.30
2011,09,03,04,03,12.30
2011,09,03,04,04,12.20
2011,09,03,04,05,12.20
2011,09,03,04,06,12.10
2011,09,03,04,07,12.00
2011,09,03,04,08,12.00
2011,09,03,04,09,11.90
2011,09,03,04,10,11.80
2011,09,03,04,11,11.70
2011,09,03,04,12,11.70
2011,09,03,04,13,11.60
2011,09,03,04,14,11.60
2011,09,03,04,15,11.60
2011,09,03,04,16,11.50
2011,09,03,04,17,11.40
2011,09,03,04,18,11.40
2011,09,03,04,19,11.50
2011,09,03,04,20,11.50
2011,09,03,04,21,11.60
2011,09,03,04,22,11.60
2011,09,03,04,23,11.60
2011,09,03,04,24,11.50
2011,09,03,04,25,11.50
2011,09,03,04,26,11.40
2011,09,03,04,27,11.40
2011,09,03,04,28,11.40
2011,09,03,04,29,11.30
2011,09,03,04,30,11.30
2011,09,03,04,31,11.30
2011,09,03,04,32,11.30
2011,09,03,04,33,11.30
2011,09,03,04,34,11.30
2011,09,03,04,35,11.30
2011,09,03,04,36,11.30
2011,09,03,04,37,11.30
2011,09,03,04,38,11.30
2011,09,03,04,39,11.40
2011,09,03,04,40,11.40
2011,09,03,04,41,11.40
2011,09,03,04,42,11.40
2011,09,03,04,43,11.40
2011,09,03,04,44,11.30
2011,09,03,04,45,11.30
2011,09,03,04,46,11.30
2011,09,03,04,47,11.20
2011,09,03,04,48,11.20
2011,09,03,04,49,11.10
2011,09,03,04,50,11.10
2011,09,03,04,51,11.00
2011,09,03,04,52,11.00
2011,09,03,04,53,10.90
2011,09,03,04,54,10.90
2011,09,03,04,55,10.80
2011,09,03,04,56,10.80
2011,09,03,04,57,10.80
2011,09,03,04,58,10.80
2011,09,03,04,59,10.80
2011,09,03,05,00,10.70
2011,09,03,05,01,10.70
2011,09,03,05,02,10.70
2011,09,03,05,03,10.80
2011,09,03,05,04,10.80
2011,09,03,05,05,10.80
2011,09,03,05,06,10.90
2011,09,03,05,07,10.90
2011,09,03,05,08,10.90
2011,09,03,05,09,10.90
2011,09,03,05,10,10.90
2011,09,03,05,11,10.90
2011,09,03,05,12,10.90
2011,09,03,05,13,11.00
2011,09,03,05,14,11.00
2011,09,03,05,15,11.00
2011,09,03,05,16,11.00
2011,09,03,05,17,11.00
2011,09,03,05,18,11.10
2011,09,03,05,19,11.20
2011,09,03,05,20,11.20
2011,09,03,05,21,11.20
2011,09,03,05,22,11.30
2011,09,03,05,23,11.30
2011,09,03,05,24,11.30
2011,09,03,05,25,11.30
2011,09,03,05,26,11.40
2011,09,03,05,27,11.40
2011,09,03,05,28,11.40
2011,09,03,05,29,11.40
2011,09,03,05,30,11.40
2011,09,03,05,31,11.30
2011,09,03,05,32,11.30
2011,09,03,05,33,11.30
2011,09,03,05,34,11.20
2011,09,03,05,35,11.20
2011,09,03,05,36,11.20
2011,09,03,05,37,11.20
2011,09,03,05,38,11.10
2011,09,03,05,39,11.00
2011,09,03,05,40,11.00
2011,09,03,05,41,10.90
2011,09,03,05,42,10.80
2011,09,03,05,43,10.80
2011,09,03,05,44,10.80
2011,09,03,05,45,10.80
2011,09,03,05,46,10.80
2011,09,03,05,47,10.80
2011,09,03,05,48,10.80
2011,09,03,05,49,10.80
2011,09,03,05,50,10.80
2011,09,03,05,51,10.70
2011,09,03,05,52,10.70
2011,09,03,05,53,10.70
2011,09,03,05,54,10.70
2011,09,03,05,55,10.70
2011,09,03,05,56,10.70
2011,09,03,05,57,10.70
2011,09,03,05,58,10.60
2011,09,03,05,59,10.60
2011,09,03,06,00,10.60
2011,09,03,06,01,10.50
2011,09,03,06,02,10.50
2011,09,03,06,03,10.40
2011,09,03,06,04,10.40
2011,09,03,06,05,10.30
2011,09,03,06,06,10.30
2011,09,03,06,07,10.30
2011,09,03,06,08,10.30
2011,09,03,06,09,10.20
2011,09,03,06,10,10.20
2011,09,03,06,11,10.20
2011,09,03,06,12,10.20
2011,09,03,06,13,10.20
2011,09,03,06,14,10.20
2011,09,03,06,15,10.30
2011,09,03,06,16,10.40
2011,09,03,06,17,10.50
2011,09,03,06,18,10.60
2011,09,03,06,19,10.60
2011,09,03,06,20,10.70
2011,09,03,06,21,10.70
2011,09,03,06,22,10.70
2011,09,03,06,23,10.70
2011,09,03,06,24,10.70
2011,09,03,06,25,10.70
2011,09,03,06,26,10.70
2011,09,03,06,27,10.70
2011,09,03,06,28,10.70
2011,09,03,06,29,10.70
2011,09,03,06,30,10.70
2011,09,03,06,31,10.70
2011,09,03,06,32,10.70
2011,09,03,06,33,10.70
2011,09,03,06,34,10.60
2011,09,03,06,35,10.60
2011,09,03,06,36,10.60
2011,09,03,06,37,10.60
2011,09,03,06,38,10.60
2011,09,03,06,39,10.60
2011,09,03,06,40,10.60
2011,09,03,06,41,10.60
2011,09,03,06,42,10.50
2011,09,03,06,43,10.50
2011,09,03,06,44,10.50
2011,09,03,06,45,10.40
2011,09,03,06,46,10.40
2011,09,03,06,47,10.40
2011,09,03,06,48,10.40
2011,09,03,06,49,10.40
2011,09,03,06,50,10.30
2011,09,03,06,51,10.30
2011,09,03,06,52,10.30
2011,09,03,06,53,10.30
2011,09,03,06,54,10.30
2011,09,03,06,55,10.20
2011,09,03,06,56,10.20
2011,09,03,06,57,10.30
2011,09,03,06,58,10.30
2011,09,03,06,59,10.30
2011,09,03,07,00,10.20
2011,09,03,07,01,10.20
2011,09,03,07,02,10.20
2011,09,03,07,03,10.20
2011,09,03,07,04,10.30
2011,09,03,07,05,10.30
2011,09,03,07,06,10.30
2011,09,03,07,07,10.30
2011,09,03,07,08,10.30
2011,09,03,07,09,10.40
2011,09,03,07,10,10.40
2011,09,03,07,11,10.50
2011,09,03,07,12,10.60
2011,09,03,07,13,10.60
2011,09,03,07,14,10.60
2011,09,03,07,15,10.70
2011,09,03,07,16,10.80
2011,09,03,07,17,10.80
2011,09,03,07,18,10.90
2011,09,03,07,19,10.90
2011,09,03,07,20,11.00
2011,09,03,07,21,11.10
2011,09,03,07,22,11.10
2011,09,03,07,23,11.20
2011,09,03,07,24,11.20
2011,09,03,07,25,11.20
2011,09,03,07,26,11.30
2011,09,03,07,27,11.30
2011,09,03,07,28,11.30
2011,09,03,07,29,11.30
2011,09,03,07,30,11.40
2011,09,03,07,31,11.40
2011,09,03,07,32,11.40
2011,09,03,07,33,11.50
2011,09,03,07,34,11.60
2011,09,03,07,35,11.60
2011,09,03,07,36,11.70
2011,09,03,07,37,11.70
2011,09,03,07,38,11.70
2011,09,03,07,39,11.80
2011,09,03,07,40,11.90
2011,09,03,07,41,12.00
2011,09,03,07,42,12.10
2011,09,03,07,43,12.20
2011,09,03,07,44,12.30
2011,09,03,07,45,12.40
2011,09,03,07,46,12.50
2011,09,03,07,47,12.70
2011,09,03,07,48,12.90
2011,09,03,07,49,13.00
2011,09,03,07,50,13.10
2011,09,03,07,51,13.20
2011,09,03,07,52,13.30
2011,09,03,07,53,13.40
2011,09,03,07,54,13.50
2011,09,03,07,55,13.60
2011,09,03,07,56,13.70
2011,09,03,07,57,13.80
2011,09,03,07,58,13.90
2011,09,03,07,59,13.90
2011,09,03,08,00,14.00
2011,09,03,08,01,14.00
2011,09,03,08,02,14.10
2011,09,03,08,03,14.10
2011,09,03,08,04,14.20
2011,09,03,08,05,14.20
2011,09,03,08,06,14.30
2011,09,03,08,07,14.40
2011,09,03,08,08,14.40
2011,09,03,08,09,14.50
2011,09,03,08,10,14.60
2011,09,03,08,11,14.70
2011,09,03,08,12,14.70
2011,09,03,08,13,14.80
2011,09,03,08,14,14.90
2011,09,03,08,15,14.90
2011,09,03,08,16,15.00
2011,09,03,08,17,15.00
2011,09,03,08,18,15.00
2011,09,03,08,19,15.00
2011,09,03,08,20,15.00
2011,09,03,08,21,15.10
2011,09,03,08,22,15.10
2011,09,03,08,23,15.20
2011,09,03,08,24,15.20
2011,09,03,08,25,15.30
2011,09,03,08,26,15.30
2011,09,03,08,27,15.40
2011,09,03,08,28,15.40
2011,09,03,08,29,15.50
2011,09,03,08,30,15.50
2011,09,03,08,31,15.60
2011,09,03,08,32,15.60
2011,09,03,08,33,15.60
2011,09,03,08,34,15.60
2011,09,03,08,35,15.70
2011,09,03,08,36,15.70
2011,09,03,08,37,15.70
2011,09,03,08,38,15.80
2011,09,03,08,39,15.80
2011,09,03,08,40,15.80
2011,09,03,08,41,15.90
2011,09,03,08,42,15.90
2011,09,03,08,43,15.90
2011,09,03,08,44,16.00
2011,09,03,08,45,16.00
2011,09,03,08,46,16.00
2011,09,03,08,47,16.10
2011,09,03,08,48,16.10
2011,09,03,08,49,16.10
2011,09,03,08,50,16.10
2011,09,03,08,51,16.20
2011,09,03,08,52,16.20
2011,09,03,08,53,16.20
2011,09,03,08,54,16.20
2011,09,03,08,55,16.30
2011,09,03,08,56,16.30
2011,09,03,08,57,16.30
2011,09,03,08,58,16.30
2011,09,03,08,59,16.30
2011,09,03,09,00,16.40
2011,09,03,09,01,16.40
2011,09,03,09,02,16.40
2011,09,03,09,03,16.50
2011,09,03,09,04,16.60
2011,09,03,09,05,16.60
2011,09,03,09,06,16.60
2011,09,03,09,07,16.70
2011,09,03,09,08,16.70
2011,09,03,09,09,16.70
2011,09,03,09,10,16.70
2011,09,03,09,11,16.70
2011,09,03,09,12,16.80
2011,09,03,09,13,16.80
2011,09,03,09,14,16.80
2011,09,03,09,15,16.80
2011,09,03,09,16,16.90
2011,09,03,09,17,16.90
2011,09,03,09,18,16.90
2011,09,03,09,19,16.90
2011,09,03,09,20,16.90
2011,09,03,09,21,17.00
2011,09,03,09,22,17.00
2011,09,03,09,23,17.10
2011,09,03,09,24,17.10
2011,09,03,09,25,17.10
2011,09,03,09,26,17.20
2011,09,03,09,27,17.20
2011,09,03,09,28,17.20
2011,09,03,09,29,17.20
2011,09,03,09,30,17.30
2011,09,03,09,31,17.30
2011,09,03,09,32,17.30
2011,09,03,09,33,17.30
2011,09,03,09,34,17.30
2011,09,03,09,35,17.30
2011,09,03,09,36,17.30
2011,09,03,09,37,17.30
2011,09,03,09,38,17.40
2011,09,03,09,39,17.40
2011,09,03,09,40,17.40
2011,09,03,09,41,17.40
2011,09,03,09,42,17.50
2011,09,03,09,43,17.50
2011,09,03,09,44,17.60
2011,09,03,09,45,17.60
2011,09,03,09,46,17.70
2011,09,03,09,47,17.70
2011,09,03,09,48,17.70
2011,09,03,09,49,17.80
2011,09,03,09,50,17.80
2011,09,03,09,51,17.80
2011,09,03,09,52,17.80
2011,09,03,09,53,17.70
2011,09,03,09,54,17.70
2011,09,03,09,55,17.70
2011,09,03,09,56,17.80
2011,09,03,09,57,17.80
2011,09,03,09,58,17.80
2011,09,03,09,59,17.90
2011,09,03,10,00,17.90
2011,09,03,10,01,18.00
2011,09,03,10,02,18.00
2011,09,03,10,03,18.00
2011,09,03,10,04,18.10
2011,09,03,10,05,18.10
2011,09,03,10,06,18.20
2011,09,03,10,07,18.20
2011,09,03,10,08,18.20
2011,09,03,10,09,18.30
2011,09,03,10,10,18.30
2011,09,03,10,11,18.30
2011,09,03,10,12,18.40
2011,09,03,10,13,18.50
2011,09,03,10,14,18.60
2011,09,03,10,15,18.60
2011,09,03,10,16,18.70
2011,09,03,10,17,18.70
2011,09,03,10,18,18.80
2011,09,03,10,19,18.90
2011,09,03,10,20,19.00
2011,09,03,10,21,19.10
2011,09,03,10,22,19.30
2011,09,03,10,23,19.40
2011,09,03,10,24,19.50
2011,09,03,10,25,19.60
2011,09,03,10,26,19.60
2011,09,03,10,27,19.50
2011,09,03,10,28,19.40
2011,09,03,10,29,19.40
2011,09,03,10,30,19.30
2011,09,03,10,31,19.40
2011,09,03,10,32,19.40
2011,09,03,10,33,19.40
2011,09,03,10,34,19.30
2011,09,03,10,35,19.30
2011,09,03,10,36,19.30
2011,09,03,10,37,19.30
2011,09,03,10,38,19.30
2011,09,03,10,39,19.40
2011,09,03,10,40,19.40
2011,09,03,10,41,19.40
2011,09,03,10,42,19.40
2011,09,03,10,43,19.50
2011,09,03,10,44,19.60
2011,09,03,10,45,19.70
2011,09,03,10,46,19.80
2011,09,03,10,47,19.80
2011,09,03,10,48,19.80
2011,09,03,10,49,19.90
2011,09,03,10,50,19.80
2011,09,03,10,51,19.70
2011,09,03,10,52,19.70
2011,09,03,10,53,19.70
2011,09,03,10,54,19.70
2011,09,03,10,55,19.60
2011,09,03,10,56,19.50
2011,09,03,10,57,19.50
2011,09,03,10,58,19.50
2011,09,03,10,59,19.60
2011,09,03,11,00,19.70
2011,09,03,11,01,19.80
2011,09,03,11,02,20.00
2011,09,03,11,03,20.10
2011,09,03,11,04,20.20
2011,09,03,11,05,20.30
2011,09,03,11,06,20.30
2011,09,03,11,07,20.40
2011,09,03,11,08,20.30
2011,09,03,11,09,20.30
2011,09,03,11,10,20.20
2011,09,03,11,11,20.10
2011,09,03,11,12,20.10
2011,09,03,11,13,20.00
2011,09,03,11,14,19.90
2011,09,03,11,15,20.00
2011,09,03,11,16,20.10
2011,09,03,11,17,20.20
2011,09,03,11,18,20.30
2011,09,03,11,19,20.30
2011,09,03,11,20,20.20
2011,09,03,11,21,20.20
2011,09,03,11,22,20.20
2011,09,03,11,23,20.20
2011,09,03,11,24,20.20
2011,09,03,11,25,20.30
2011,09,03,11,26,20.40
2011,09,03,11,27,20.50
2011,09,03,11,28,20.50
2011,09,03,11,29,20.60
2011,09,03,11,30,20.70
2011,09,03,11,31,20.80
2011,09,03,11,32,20.80
2011,09,03,11,33,20.80
2011,09,03,11,34,20.80
2011,09,03,11,35,20.80
2011,09,03,11,36,20.80
2011,09,03,11,37,20.70
2011,09,03,11,38,20.70
2011,09,03,11,39,20.80
2011,09,03,11,40,20.80
2011,09,03,11,41,20.80
2011,09,03,11,42,20.80
2011,09,03,11,43,20.90
2011,09,03,11,44,21.10
2011,09,03,11,45,21.20
2011,09,03,11,46,21.30
2011,09,03,11,47,21.30
2011,09,03,11,48,21.30
2011,09,03,11,49,21.30
2011,09,03,11,50,21.30
2011,09,03,11,51,21.30
2011,09,03,11,52,21.30
2011,09,03,11,53,21.30
2011,09,03,11,54,21.40
2011,09,03,11,55,21.50
2011,09,03,11,56,21.50
2011,09,03,11,57,21.50
2011,09,03,11,58,21.60
2011,09,03,11,59,21.60
2011,09,03,12,00,21.70
2011,09,03,12,01,21.60
2011,09,03,12,02,21.60
2011,09,03,12,03,21.60
2011,09,03,12,04,21.50
2011,09,03,12,05,21.50
2011,09,03,12,06,21.50
2011,09,03,12,07,21.50
2011,09,03,12,08,21.60
2011,09,03,12,09,21.60
2011,09,03,12,10,21.70
2011,09,03,12,11,21.70
2011,09,03,12,12,21.80
2011,09,03,12,13,21.80
2011,09,03,12,14,21.80
2011,09,03,12,15,21.80
2011,09,03,12,16,21.80
2011,09,03,12,17,21.90
2011,09,03,12,18,21.90
2011,09,03,12,19,22.00
2011,09,03,12,20,22.10
2011,09,03,12,21,22.10
2011,09,03,12,22,22.10
2011,09,03,12,23,22.10
2011,09,03,12,24,22.10
2011,09,03,12,25,22.10
2011,09,03,12,26,22.10
2011,09,03,12,27,22.10
2011,09,03,12,28,22.10
2011,09,03,12,29,22.10
2011,09,03,12,30,22.10
2011,09,03,12,31,22.10
2011,09,03,12,32,22.20
2011,09,03,12,33,22.30
2011,09,03,12,34,22.40
2011,09,03,12,35,22.50
2011,09,03,12,36,22.60
2011,09,03,12,37,22.70
2011,09,03,12,38,22.80
2011,09,03,12,39,22.80
2011,09,03,12,40,22.80
2011,09,03,12,41,22.80
2011,09,03,12,42,22.80
2011,09,03,12,43,22.80
2011,09,03,12,44,22.70
2011,09,03,12,45,22.80
2011,09,03,12,46,22.70
2011,09,03,12,47,22.60
2011,09,03,12,48,22.60
2011,09,03,12,49,22.60
2011,09,03,12,50,22.60
2011,09,03,12,51,22.60
2011,09,03,12,52,22.50
2011,09,03,12,53,22.50
2011,09,03,12,54,22.50
2011,09,03,12,55,22.60
2011,09,03,12,56,22.70
2011,09,03,12,57,22.80
2011,09,03,12,58,22.80
2011,09,03,12,59,22.70
2011,09,03,13,00,22.60
2011,09,03,13,01,22.60
2011,09,03,13,02,22.60
2011,09,03,13,03,22.60
2011,09,03,13,04,22.60
2011,09,03,13,05,22.50
2011,09,03,13,06,22.50
2011,09,03,13,07,22.50
2011,09,03,13,08,22.40
2011,09,03,13,09,22.50
2011,09,03,13,10,22.50
2011,09,03,13,11,22.50
2011,09,03,13,12,22.40
2011,09,03,13,13,22.40
2011,09,03,13,14,22.50
2011,09,03,13,15,22.60
2011,09,03,13,16,22.70
2011,09,03,13,17,22.80
2011,09,03,13,18,22.70
2011,09,03,13,19,22.70
2011,09,03,13,20,22.70
2011,09,03,13,21,22.70
2011,09,03,13,22,22.80
2011,09,03,13,23,22.80
2011,09,03,13,24,22.80
2011,09,03,13,25,22.80
2011,09,03,13,26,22.70
2011,09,03,13,27,22.60
2011,09,03,13,28,22.60
2011,09,03,13,29,22.60
2011,09,03,13,30,22.70
2011,09,03,13,31,22.70
2011,09,03,13,32,22.80
2011,09,03,13,33,22.80
2011,09,03,13,34,22.90
2011,09,03,13,35,23.00
2011,09,03,13,36,23.10
2011,09,03,13,37,23.10
2011,09,03,13,38,23.10
2011,09,03,13,39,23.10
2011,09,03,13,40,23.20
2011,09,03,13,41,23.20
2011,09,03,13,42,23.20
2011,09,03,13,43,23.20
2011,09,03,13,44,23.20
2011,09,03,13,45,23.30
2011,09,03,13,46,23.40
2011,09,03,13,47,23.50
2011,09,03,13,48,23.60
2011,09,03,13,49,23.80
2011,09,03,13,50,23.90
2011,09,03,13,51,24.00
2011,09,03,13,52,24.00
2011,09,03,13,53,24.00
2011,09,03,13,54,23.90
2011,09,03,13,55,23.80
2011,09,03,13,56,23.60
2011,09,03,13,57,23.50
2011,09,03,13,58,23.40
2011,09,03,13,59,23.40
2011,09,03,14,00,23.40
2011,09,03,14,01,23.40
2011,09,03,14,02,23.50
2011,09,03,14,03,23.50
2011,09,03,14,04,23.50
2011,09,03,14,05,23.60
2011,09,03,14,06,23.60
2011,09,03,14,07,23.60
2011,09,03,14,08,23.60
2011,09,03,14,09,23.60
2011,09,03,14,10,23.60
2011,09,03,14,11,23.50
2011,09,03,14,12,23.40
2011,09,03,14,13,23.40
2011,09,03,14,14,23.30
2011,09,03,14,15,23.30
2011,09,03,14,16,23.20
2011,09,03,14,17,23.20
2011,09,03,14,18,23.20
2011,09,03,14,19,23.10
2011,09,03,14,20,23.10
2011,09,03,14,21,23.20
2011,09,03,14,22,23.20
2011,09,03,14,23,23.30
2011,09,03,14,24,23.40
2011,09,03,14,25,23.40
2011,09,03,14,26,23.60
2011,09,03,14,27,23.80
2011,09,03,14,28,23.90
2011,09,03,14,29,24.10
2011,09,03,14,30,24.20
2011,09,03,14,31,24.20
2011,09,03,14,32,24.10
2011,09,03,14,33,24.00
2011,09,03,14,34,24.00
2011,09,03,14,35,24.10
2011,09,03,14,36,24.10
2011,09,03,14,37,24.10
2011,09,03,14,38,24.20
2011,09,03,14,39,24.20
2011,09,03,14,40,24.20
2011,09,03,14,41,24.20
2011,09,03,14,42,24.10
2011,09,03,14,43,24.10
2011,09,03,14,44,24.00
2011,09,03,14,45,23.90
2011,09,03,14,46,23.80
2011,09,03,14,47,23.70
2011,09,03,14,48,23.60
2011,09,03,14,49,23.60
2011,09,03,14,50,23.70
2011,09,03,14,51,23.80
2011,09,03,14,52,23.90
2011,09,03,14,53,24.00
2011,09,03,14,54,24.20
2011,09,03,14,55,24.30
2011,09,03,14,56,24.40
2011,09,03,14,57,24.40
2011,09,03,14,58,24.50
2011,09,03,14,59,24.60
2011,09,03,15,00,24.70
2011,09,03,15,01,24.70
2011,09,03,15,02,24.80
2011,09,03,15,03,24.90
2011,09,03,15,04,24.90
2011,09,03,15,05,24.90
2011,09,03,15,06,24.90
2011,09,03,15,07,24.90
2011,09,03,15,08,25.00
2011,09,03,15,09,25.00
2011,09,03,15,10,25.00
2011,09,03,15,11,25.00
2011,09,03,15,12,25.10
2011,09,03,15,13,25.10
2011,09,03,15,14,25.10
2011,09,03,15,15,25.20
2011,09,03,15,16,25.20
2011,09,03,15,17,25.10
2011,09,03,15,18,25.10
2011,09,03,15,19,25.00
2011,09,03,15,20,24.90
2011,09,03,15,21,24.80
2011,09,03,15,22,24.70
2011,09,03,15,23,24.60
2011,09,03,15,24,24.50
2011,09,03,15,25,24.40
2011,09,03,15,26,24.40
2011,09,03,15,27,24.40
2011,09,03,15,28,24.40
2011,09,03,15,29,24.40
2011,09,03,15,30,24.40
2011,09,03,15,31,24.50
2011,09,03,15,32,24.60
2011,09,03,15,33,24.70
2011,09,03,15,34,24.80
2011,09,03,15,35,25.00
2011,09,03,15,36,25.10
2011,09,03,15,37,25.20
2011,09,03,15,38,25.30
2011,09,03,15,39,25.30
2011,09,03,15,40,25.30
2011,09,03,15,41,25.30
2011,09,03,15,42,25.20
2011,09,03,15,43,25.00
2011,09,03,15,44,24.80
2011,09,03,15,45,24.70
2011,09,03,15,46,24.60
2011,09,03,15,47,24.60
2011,09,03,15,48,24.60
2011,09,03,15,49,24.70
2011,09,03,15,50,24.70
2011,09,03,15,51,24.80
2011,09,03,15,52,24.80
2011,09,03,15,53,24.80
2011,09,03,15,54,24.80
2011,09,03,15,55,24.80
2011,09,03,15,56,24.70
2011,09,03,15,57,24.60
2011,09,03,15,58,24.40
2011,09,03,15,59,24.30
2011,09,03,16,00,24.10
2011,09,03,16,01,24.00
2011,09,03,16,02,24.00
2011,09,03,16,03,24.00
2011,09,03,16,04,23.90
2011,09,03,16,05,24.00
2011,09,03,16,06,24.00
2011,09,03,16,07,23.90
2011,09,03,16,08,23.90
2011,09,03,16,09,23.90
2011,09,03,16,10,23.80
2011,09,03,16,11,23.70
2011,09,03,16,12,23.70
2011,09,03,16,13,23.70
2011,09,03,16,14,23.70
2011,09,03,16,15,23.70
2011,09,03,16,16,23.60
2011,09,03,16,17,23.70
2011,09,03,16,18,23.70
2011,09,03,16,19,23.60
2011,09,03,16,20,23.60
2011,09,03,16,21,23.60
2011,09,03,16,22,23.60
2011,09,03,16,23,23.60
2011,09,03,16,24,23.60
2011,09,03,16,25,23.70
2011,09,03,16,26,23.80
2011,09,03,16,27,23.90
2011,09,03,16,28,23.90
2011,09,03,16,29,24.00
2011,09,03,16,30,24.10
2011,09,03,16,31,24.20
2011,09,03,16,32,24.30
2011,09,03,16,33,24.30
2011,09,03,16,34,24.40
2011,09,03,16,35,24.40
2011,09,03,16,36,24.30
2011,09,03,16,37,24.30
2011,09,03,16,38,24.30
2011,09,03,16,39,24.30
2011,09,03,16,40,24.30
2011,09,03,16,41,24.20
2011,09,03,16,42,24.10
2011,09,03,16,43,24.10
2011,09,03,16,44,24.00
2011,09,03,16,45,24.00
2011,09,03,16,46,23.90
2011,09,03,16,47,23.90
2011,09,03,16,48,23.90
2011,09,03,16,49,24.00
2011,09,03,16,50,24.00
2011,09,03,16,51,24.10
2011,09,03,16,52,24.00
2011,09,03,16,53,24.00
2011,09,03,16,54,23.90
2011,09,03,16,55,23.90
2011,09,03,16,56,23.90
2011,09,03,16,57,24.00
2011,09,03,16,58,24.00
2011,09,03,16,59,24.00
2011,09,03,17,00,23.90
2011,09,03,17,01,23.90
2011,09,03,17,02,23.90
2011,09,03,17,03,23.90
2011,09,03,17,04,23.80
2011,09,03,17,05,23.80
2011,09,03,17,06,23.80
2011,09,03,17,07,23.80
2011,09,03,17,08,23.80
2011,09,03,17,09,23.70
2011,09,03,17,10,23.60
2011,09,03,17,11,23.60
2011,09,03,17,12,23.50
2011,09,03,17,13,23.50
2011,09,03,17,14,23.40
2011,09,03,17,15,23.40
2011,09,03,17,16,23.30
2011,09,03,17,17,23.30
2011,09,03,17,18,23.20
2011,09,03,17,19,23.10
2011,09,03,17,20,23.00
2011,09,03,17,21,22.90
2011,09,03,17,22,22.90
2011,09,03,17,23,22.80
2011,09,03,17,24,22.80
2011,09,03,17,25,22.80